This demonstration page uses our WeatherBlox Daily Observations layout. Learn more.

Left ArrowRight Arrow

Hourly Observations for May 25, 2018

Temp ( °F °C ) Dew Point ( °F °C ) Humidity (%) Winds ( mph kmh ) Pressure ( in mb ) Visibility ( mi km ) Precip ( " mm )
12:53 am 00:53 Clear 64 17.8 48 8.9 56 56 WSW 16 26 29.79 1009 10 16 N/A
1:53 am 01:53 Clear 63 17.2 47 8.3 56 56 SW 17 28 29.78 1009 10 16 N/A
2:53 am 02:53 Clear 62 16.7 46 7.8 56 56 SSW 16 26 29.79 1009 10 16 N/A
3:53 am 03:53 Clear 61 16.1 46 7.8 58 58 SW 15 24 29.79 1009 10 16 N/A
4:53 am 04:53 Clear 61 16.1 46 7.8 58 58 SW 17 28 29.79 1009 10 16 N/A
5:53 am 05:53 Sunny 59 15 46 7.8 62 62 SW 14 22 29.81 1009 10 16 N/A
6:53 am 06:53 Sunny 60 15.6 47 8.3 62 62 SW 16 26 29.82 1010 10 16 N/A
7:53 am 07:53 Sunny 64 17.8 48 8.9 56 56 SW 15 24 29.83 1010 10 16 N/A
8:53 am 08:53 Sunny 68 20 48 8.9 49 49 WSW 12 19 29.83 1010 10 16 N/A
9:53 am 09:53 Sunny 70 21.1 49 9.4 47 47 SW 13 20 29.83 1010 10 16 N/A
10:53 am 10:53 Sunny 73 22.8 49 9.4 43 43 SW 9 15 29.83 1010 10 16 N/A
11:53 am 11:53 Sunny 77 25 50 10 39 39 SSW 12 19 29.81 1010 10 16 N/A
12:53 pm 12:53 Sunny 80 26.7 50 10 35 35 VRB 7 11 29.79 1009 10 16 N/A
1:53 pm 13:53 Mostly Sunny 82 27.8 48 8.9 31 31 W 9 15 29.78 1009 10 16 N/A
2:53 pm 14:53 Mostly Sunny 82 27.8 47 8.3 29 29 SSW 12 19 29.76 1008 10 16 N/A
3:53 pm 15:53 Mostly Sunny 83 28.3 46 7.8 27 27 VRB 3 6 29.75 1007 10 16 N/A
4:53 pm 16:53 Mostly Cloudy 82 27.8 46 7.8 28 28 SW 6 9 29.72 1007 10 16 N/A
5:53 pm 17:53 Partly Cloudy 83 28.3 45 7.2 26 26 SSW 12 19 29.71 1006 10 16 N/A
6:53 pm 18:53 Mostly Sunny 81 27.2 45 7.2 28 28 S 10 17 29.70 1006 10 16 N/A
7:53 pm 19:53 Mostly Sunny 79 26.1 45 7.2 30 30 SSW 10 17 29.69 1005 10 16 N/A
8:53 pm 20:53 Partly Cloudy 70 21.1 49 9.4 47 47 S 8 13 29.69 1006 10 16 N/A
9:53 pm 21:53 Clear 67 19.4 49 9.4 53 53 S 12 19 29.70 1006 10 16 N/A
10:53 pm 22:53 Clear 67 19.4 47 8.3 49 49 S 12 19 29.70 1006 10 16 N/A
11:53 pm 23:53 Clear 65 18.3 46 7.8 51 51 SSW 5 7 29.69 1005 10 16 N/A

Powered by AerisWeather